Weather Data

Pearl Creek Farm: 8878 N Farm Road 75, Walnut Grove MO 65770

<== Previous Day (Sunday 07 Sep 2014) | Next Day (Tuesday 09 Sep 2014) ==>

Summary Precipitation Data For Monday 08 September 2014

ElementValueUnits
PrecipitationT
Notes(none)
SourcePearl Creek Farm

Summary Temperature Data For Monday 08 September 2014

ElementValueUnits
High Temperature84 oF
Low Temperature63 oF
Average Temperature72 oF
High Humidity89 %
Low Humidity64 %
Average Humidity80 %
SourcePearl Creek Farm

Detail Temperature Data For Monday 08 September 2014

Date / TimeTemp (F)RH (%)Dew Pt (F)Report Date / TimeSource
2014-09-08 00:00:00 64 84 58.9 2014-11-02 13:41:02 Pearl Creek Farm
2014-09-08 00:30:00 63 84 58.1 2014-11-02 13:41:02 Pearl Creek Farm
2014-09-08 01:00:00 63 85 58.4 2014-11-02 13:41:02 Pearl Creek Farm
2014-09-08 01:30:00 63 85 58.3 2014-11-02 13:41:02 Pearl Creek Farm
2014-09-08 02:00:00 63 86 58.6 2014-11-02 13:41:02 Pearl Creek Farm
2014-09-08 02:30:00 63 85 58.4 2014-11-02 13:41:02 Pearl Creek Farm
2014-09-08 03:00:00 63 86 58.6 2014-11-02 13:41:02 Pearl Creek Farm
2014-09-08 03:30:00 63 87 58.9 2014-11-02 13:41:02 Pearl Creek Farm
2014-09-08 04:00:00 63 87 58.9 2014-11-02 13:41:02 Pearl Creek Farm
2014-09-08 04:30:00 63 88 59.2 2014-11-02 13:41:02 Pearl Creek Farm
2014-09-08 05:00:00 63 88 59.4 2014-11-02 13:41:02 Pearl Creek Farm
2014-09-08 05:30:00 63 88 59.2 2014-11-02 13:41:02 Pearl Creek Farm
2014-09-08 06:00:00 64 87 60.1 2014-11-02 13:41:02 Pearl Creek Farm
2014-09-08 06:30:00 64 87 60.1 2014-11-02 13:41:02 Pearl Creek Farm
2014-09-08 07:00:00 64 89 60.5 2014-11-02 13:41:02 Pearl Creek Farm
2014-09-08 07:30:00 64 88 60.4 2014-11-02 13:41:02 Pearl Creek Farm
2014-09-08 08:00:00 64 88 60.2 2014-11-02 13:41:02 Pearl Creek Farm
2014-09-08 08:30:00 65 88 61.2 2014-11-02 13:41:02 Pearl Creek Farm
2014-09-08 09:00:00 67 86 62.7 2014-11-02 13:41:02 Pearl Creek Farm
2014-09-08 09:30:00 69 84 64.0 2014-11-02 13:41:02 Pearl Creek Farm
2014-09-08 10:00:00 71 84 65.7 2014-11-02 13:41:02 Pearl Creek Farm
2014-09-08 10:30:00 72 82 66.2 2014-11-02 13:41:02 Pearl Creek Farm
2014-09-08 11:00:00 74 80 67.3 2014-11-02 13:41:02 Pearl Creek Farm
2014-09-08 11:30:00 76 79 69.0 2014-11-02 13:41:02 Pearl Creek Farm
2014-09-08 12:00:00 77 77 69.2 2014-11-02 13:41:02 Pearl Creek Farm
2014-09-08 12:30:00 79 76 70.8 2014-11-02 13:41:02 Pearl Creek Farm
2014-09-08 13:00:00 79 74 69.8 2014-11-02 13:41:02 Pearl Creek Farm
2014-09-08 13:30:00 80 73 70.4 2014-11-02 13:41:02 Pearl Creek Farm
2014-09-08 14:00:00 82 71 71.4 2014-11-02 13:41:02 Pearl Creek Farm
2014-09-08 14:30:00 83 68 71.1 2014-11-02 13:41:02 Pearl Creek Farm
2014-09-08 15:00:00 83 68 71.3 2014-11-02 13:41:02 Pearl Creek Farm
2014-09-08 15:30:00 84 66 71.4 2014-11-02 13:41:02 Pearl Creek Farm
2014-09-08 16:00:00 84 67 71.6 2014-11-02 13:41:02 Pearl Creek Farm
2014-09-08 16:30:00 84 64 70.3 2014-11-02 13:41:02 Pearl Creek Farm
2014-09-08 17:00:00 84 65 70.7 2014-11-02 13:41:02 Pearl Creek Farm
2014-09-08 17:30:00 83 65 70.0 2014-11-02 13:41:02 Pearl Creek Farm
2014-09-08 18:00:00 83 66 70.5 2014-11-02 13:41:02 Pearl Creek Farm
2014-09-08 18:30:00 82 66 69.3 2014-11-02 13:41:02 Pearl Creek Farm
2014-09-08 19:00:00 80 70 69.1 2014-11-02 13:41:02 Pearl Creek Farm
2014-09-08 19:30:00 79 75 70.4 2014-11-02 13:41:02 Pearl Creek Farm
2014-09-08 20:00:00 77 77 69.2 2014-11-02 13:41:02 Pearl Creek Farm
2014-09-08 20:30:00 75 78 67.7 2014-11-02 13:41:02 Pearl Creek Farm
2014-09-08 21:00:00 74 82 68.0 2014-11-02 13:41:02 Pearl Creek Farm
2014-09-08 21:30:00 73 83 67.4 2014-11-02 13:41:02 Pearl Creek Farm
2014-09-08 22:00:00 72 84 66.9 2014-11-02 13:41:02 Pearl Creek Farm
2014-09-08 22:30:00 72 85 67.2 2014-11-02 13:41:02 Pearl Creek Farm
2014-09-08 23:00:00 71 86 66.4 2014-11-02 13:41:02 Pearl Creek Farm
2014-09-08 23:30:00 71 86 66.4 2014-11-02 13:41:02 Pearl Creek Farm

A total of 48 rows are displayed.